Temperature
23 20 19 20 20 21 21 21 21 21 22 21 20 19 20 20 19 19 19 19 19 19 19 19 18 18 18 18 18 17 17 17 17 16 16 16 16 16 15 15 15 15 15 15
20 20 21 22 23 22 22 21 21 21 22 21 19 19 19 19 19 19 18 18 19 19 19 18 18 18 18 18 18 17 17 17 17 16 16 16 16 16 15 15 15 15 15 15
20 21 23 24 23 23 22 21 21 21 21 21 20 19 19 19 19 19 19 19 19 18 18 18 18 18 17 17 17 17 17 17 16 16 16 16 15 15 15 15 15 15 15 15
21 23 24 24 23 23 22 23 23 22 20 19 20 18 18 18 18 18 18 18 18 18 18 18 18 18 17 17 17 17 17 17 16 16 16 16 15 15 15 15 15 15 15 15
22 23 23 23 24 24 23 23 22 22 20 18 19 17 17 18 17 17 17 18 18 18 18 18 17 18 17 17 17 17 17 16 16 16 16 16 15 15 15 15 15 15 14 14
22 23 24 24 24 24 23 22 20 19 17 18 18 18 17 17 17 17 17 17 18 18 18 17 17 18 17 17 17 17 16 16 16 16 16 15 15 15 15 15 15 14 14 14
22 23 24 24 23 23 22 19 18 18 17 17 18 18 17 17 18 17 17 17 17 18 18 17 17 17 17 17 16 16 16 16 16 16 15 15 15 15 15 14 14 14 14 14
21 21 23 23 23 22 21 19 18 18 18 17 18 18 17 18 18 18 18 18 17 17 18 17 17 17 17 16 16 16 16 16 16 15 15 15 15 15 15 14 14 14 14 14
20 21 23 24 24 22 21 20 19 18 18 17 17 18 18 18 17 17 17 17 17 17 17 17 17 17 17 16 16 16 16 16 15 15 15 15 14 14 14 14 14 14 14 14
21 21 22 23 23 22 22 20 17 17 18 17 18 17 17 17 17 16 16 16 17 17 17 17 17 17 17 16 16 16 15 15 15 15 15 14 14 14 14 14 14 14 13 13
20 19 20 21 21 21 21 20 18 16 17 17 17 17 18 17 16 16 16 17 17 17 17 17 16 16 16 16 16 15 15 15 15 15 15 14 14 14 14 14 14 13 13 13
20 17 18 20 21 22 21 20 18 18 17 16 16 16 18 17 16 16 17 17 17 17 17 16 16 16 16 16 16 15 15 15 15 15 15 14 14 14 14 14 13 13 13 13
20 17 17 19 19 20 21 21 19 17 16 16 16 17 17 16 16 17 17 17 17 17 17 16 16 16 16 16 16 15 15 15 15 15 14 14 14 14 13 13 13 13 13 13
20 17 17 18 18 19 20 21 20 18 16 16 17 17 17 16 16 16 17 17 17 17 17 16 16 16 16 16 16 15 15 15 15 14 14 14 14 14 13 13 13 13 13 13
18 18 19 19 20 20 20 20 20 19 18 17 17 17 16 16 16 17 17 17 17 17 16 16 16 16 15 15 15 15 15 15 14 14 14 14 14 13 13 13 13 13 13 13
17 18 18 19 20 20 20 20 20 20 19 18 17 17 16 16 17 17 17 17 16 16 16 16 16 16 16 15 15 15 15 14 14 14 14 14 14 13 13 13 13 13 13 12
16 17 17 17 19 19 18 19 19 19 19 18 17 16 16 16 16 16 16 16 16 16 16 16 16 16 15 15 15 15 15 14 14 14 14 14 14 13 13 13 13 13 12 12
16 16 15 16 17 18 18 19 19 19 18 18 17 16 16 16 16 17 17 16 16 16 16 16 16 15 15 15 15 15 15 14 14 14 14 14 13 13 13 13 13 13 12 12
16 16 15 15 16 17 18 19 19 18 17 17 16 16 16 16 16 16 16 16 16 16 16 16 16 15 15 15 15 15 14 14 14 14 14 13 13 13 13 13 13 13 12 12
16 15 15 16 17 17 17 19 19 18 16 16 16 15 15 15 14 14 16 16 16 16 16 16 15 15 15 15 15 14 14 14 14 14 14 13 13 13 13 13 13 13 13 12
16 15 15 15 16 16 17 19 19 17 15 16 16 16 15 15 15 16 16 16 16 16 15 15 15 15 15 15 14 14 14 14 14 14 14 14 13 13 13 13 13 13 13 13
15 15 15 15 15 16 17 18 16 15 16 16 16 16 16 16 16 16 16 16 16 15 15 15 15 15 15 15 14 14 14 14 14 14 14 13 13 13 13 13 13 13 13 12
15 14 14 14 14 15 17 17 18 18 17 16 16 16 16 16 15 15 15 15 15 15 15 15 14 14 14 14 14 14 14 14 13 13 13 13 13 13 13 13 13 13 12 12
15 14 14 14 15 15 17 17 17 17 17 17 16 16 16 16 15 15 15 15 15 15 14 14 14 14 14 14 14 14 14 14 13 13 13 13 13 13 13 13 13 13 12 12
14 14 13 14 14 15 16 17 17 17 16 16 16 16 16 16 15 15 15 15 14 14 14 14 14 14 14 14 14 14 13 13 13 13 13 13 13 13 13 13 13 12 12 12
13 13 13 13 14 14 15 16 16 16 16 16 16 16 16 16 15 15 15 14 14 14 14 14 14 14 14 13 13 13 13 13 13 13 13 13 13 13 12 12 12 12 12 12
Wind_Speed
2 2 6 11 11 10 7 6 7 8 4 2 3 3 4 4 5 5 5 6 6 5 5 5 6 7 7 6 7 6 6 5 5 4 4 3 2 2 1 2 2 3 2 3
2 8 15 12 9 7 5 5 7 5 3 1 2 3 4 4 6 7 6 6 6 5 4 5 5 6 7 7 7 7 7 7 6 5 4 3 3 2 2 1 1 2 3 3
9 10 9 8 7 6 6 6 6 4 3 1 1 3 3 1 3 3 4 4 5 7 7 7 6 6 6 6 7 7 6 6 6 5 4 3 2 1 1 1 1 1 2 3
7 9 6 6 6 6 6 6 6 4 1 3 2 3 5 3 3 4 5 4 5 6 6 6 7 7 7 7 6 6 5 5 5 5 5 6 4 3 2 2 1 1 1 2
6 5 5 7 7 5 6 3 3 2 2 2 2 2 5 1 3 5 5 5 5 6 7 7 7 7 6 6 6 6 6 4 4 5 5 5 4 3 2 1 1 1 1 1
8 6 4 5 3 3 2 3 5 4 3 2 4 3 4 3 5 5 4 4 4 5 6 6 5 5 4 4 4 5 6 4 4 5 5 5 5 3 2 2 2 2 1 1
4 5 3 0 1 3 4 5 4 5 3 4 3 2 4 5 4 6 6 4 3 4 6 6 5 5 4 4 3 4 5 4 4 5 5 5 5 4 4 3 3 2 2 1
1 5 3 1 2 3 2 7 6 4 4 4 2 1 4 3 1 3 5 5 5 4 5 6 6 6 6 6 4 4 5 4 4 4 4 4 4 4 3 4 3 3 3 3
3 5 5 3 2 4 2 2 6 6 1 1 2 1 3 1 2 2 3 4 4 5 5 6 6 5 6 6 5 5 5 4 3 3 4 3 4 4 4 4 3 2 2 2
4 3 4 3 2 1 5 6 5 4 2 2 3 3 4 5 4 3 4 4 4 3 3 4 5 6 5 5 4 4 4 4 3 4 3 3 3 3 3 3 3 3 2 2
3 2 4 2 1 3 0 1 3 3 4 4 3 5 5 9 8 7 6 6 6 6 5 4 4 5 5 4 4 5 4 4 4 4 3 3 2 1 2 2 2 3 2 2
2 3 2 4 5 3 3 3 5 4 2 3 3 5 4 7 6 6 6 6 5 6 6 5 5 4 4 5 4 5 4 4 4 4 3 3 2 2 1 2 2 2 2 2
3 4 2 6 6 5 2 1 2 4 3 3 3 5 2 3 4 5 5 5 4 4 6 5 4 4 4 4 4 4 4 4 4 4 4 3 2 2 2 2 2 2 2 1
5 4 5 5 6 3 3 5 3 3 3 3 5 5 3 5 5 5 5 5 5 5 6 5 4 4 4 4 4 4 3 4 4 4 4 4 3 3 3 2 2 2 2 2
5 3 3 4 5 4 4 4 3 3 6 6 6 7 7 7 7 7 6 6 5 5 5 5 5 4 4 3 3 4 4 4 4 4 4 4 3 3 2 2 2 2 2 2
3 3 0 4 4 4 4 4 3 3 3 4 4 3 4 4 4 5 6 6 6 6 5 5 5 4 4 4 5 4 4 4 4 5 4 4 3 3 2 2 2 2 2 1
1 3 1 4 5 4 3 3 2 1 1 5 5 5 5 6 6 7 6 6 5 5 5 5 5 5 5 5 5 5 6 5 5 5 4 4 4 3 3 3 2 3 2 2
4 3 3 1 2 4 6 2 2 3 2 2 4 6 8 7 6 5 5 6 5 4 3 4 4 4 4 4 3 4 4 5 5 5 5 4 4 4 3 3 3 3 3 3
6 6 3 2 3 4 4 3 2 3 0 1 5 5 5 5 5 2 1 5 6 5 4 4 5 4 4 4 3 3 3 4 4 4 5 5 5 4 4 4 4 3 3 3
2 4 4 3 3 5 5 5 2 4 1 1 5 6 5 6 3 3 3 2 4 4 4 3 3 3 3 3 3 4 3 3 4 5 5 4 4 5 5 5 4 3 3 4
2 1 2 3 4 5 4 1 3 3 6 4 5 6 5 4 5 5 3 2 4 4 4 4 3 3 3 4 4 4 3 4 5 4 4 4 4 4 5 4 4 3 3 3
3 2 2 2 3 6 3 3 4 6 3 5 5 6 5 4 4 5 4 4 4 3 3 3 3 2 2 3 4 4 4 5 4 3 2 3 3 3 3 3 3 3 3 3
2 4 3 4 6 5 2 3 3 5 5 4 5 5 6 5 4 4 3 4 4 3 3 2 3 2 2 2 4 5 4 3 3 3 2 2 2 2 3 3 3 2 3 3
2 1 1 1 3 2 1 3 2 4 4 4 6 6 6 5 5 4 3 3 2 2 2 2 2 2 2 2 2 4 4 4 4 3 2 2 2 2 2 2 3 3 4 4
3 1 1 2 3 2 3 1 1 2 3 4 4 4 6 8 5 4 3 3 3 2 1 2 2 3 3 2 2 2 3 4 4 3 2 2 2 2 2 2 2 4 4 5
2 2 2 5 5 3 4 3 3 3 3 4 4 3 5 7 6 5 4 3 3 3 2 1 1 2 1 1 1 2 3 4 4 3 3 3 2 2 2 2 2 4 3 5
Wind_Direction
241 131 233 233 220 216 233 253 267 269 255 162 193 203 212 185 150 156 166 161 161 169 172 163 159 150 148 156 152 154 152 163 155 150 153 148 151 157 157 156 154 144 140 142
333 251 242 238 236 234 235 257 271 280 269 196 188 234 220 189 181 176 179 175 168 168 170 162 161 152 160 171 166 162 168 171 168 167 166 163 156 169 177 170 124 147 143 153
219 246 247 235 230 231 241 230 241 244 300 280 120 309 264 205 198 181 173 174 173 181 183 177 169 169 165 172 175 173 176 170 168 154 135 128 103 82 86 130 204 206 159 161
241 250 257 256 244 212 250 243 220 206 225 268 176 252 274 208 207 202 189 191 187 187 185 185 180 176 177 178 174 166 163 163 159 147 147 152 161 172 195 189 207 237 174 165
253 243 244 254 245 210 225 229 198 217 207 284 298 165 279 189 214 215 199 190 186 176 181 185 178 177 175 169 166 162 157 158 158 152 157 158 159 171 171 160 175 208 226 187
250 255 228 227 241 209 173 37 17 33 68 306 261 175 267 226 222 209 206 195 180 170 174 176 167 158 153 150 152 154 155 161 160 157 159 157 159 160 155 172 185 211 232 244
302 301 294 315 16 346 76 79 23 357 3 260 253 148 248 255 207 183 189 195 186 173 161 156 152 149 150 143 141 146 147 160 167 163 166 171 172 171 176 189 194 202 215 226
247 286 272 281 194 210 206 143 161 209 232 268 329 206 261 269 185 158 163 170 157 159 166 160 163 162 157 154 152 149 148 155 159 157 167 182 180 180 191 200 200 204 207 212
188 262 283 275 250 158 181 205 178 154 217 300 288 261 298 318 73 114 141 146 156 165 170 167 159 155 153 152 155 152 148 141 149 154 157 178 192 187 192 193 195 201 202 202
158 251 284 287 13 335 169 161 102 122 167 252 270 233 229 228 222 193 170 168 169 160 166 167 162 157 158 161 153 144 149 158 162 153 161 177 199 196 185 173 187 197 209 207
122 172 296 342 199 231 317 122 127 137 160 168 234 260 222 200 200 191 191 188 182 177 181 176 172 166 160 154 146 149 158 158 155 161 166 162 178 188 180 183 197 197 197 200
129 128 271 268 259 221 183 180 147 153 222 168 183 261 267 187 185 177 189 194 184 173 174 177 164 155 154 156 155 151 158 161 169 170 165 167 174 157 166 188 198 191 187 201
116 104 23 338 344 357 14 284 173 139 131 156 177 257 290 158 166 176 173 174 168 170 163 153 149 155 165 167 162 162 168 175 173 162 155 160 179 177 199 215 209 189 184 200
108 116 163 210 244 260 287 288 274 141 158 198 212 212 229 201 183 184 165 168 171 161 152 148 156 173 182 179 175 179 180 173 167 163 163 174 190 197 201 199 194 192 189 192
98 149 211 243 267 275 266 271 268 204 190 190 214 198 213 208 188 181 171 170 170 164 158 162 162 173 187 180 180 181 182 178 168 165 172 188 195 195 191 189 197 198 193 196
81 161 253 306 312 320 299 268 239 235 199 176 162 227 222 178 147 151 164 169 167 170 174 176 172 179 190 186 182 178 185 189 173 171 186 193 183 184 192 194 187 180 185 183
145 140 126 273 301 336 297 264 216 188 174 161 188 210 163 145 150 164 166 160 165 177 186 180 180 185 198 202 193 190 189 178 167 177 189 194 189 189 199 192 178 184 189 184
154 148 151 227 344 259 247 267 120 108 81 127 148 154 163 163 170 170 160 156 163 166 173 179 180 189 198 195 192 188 173 165 167 177 188 194 188 189 192 185 195 202 195 191
167 156 153 159 225 261 275 283 193 138 182 124 134 150 151 130 95 45 180 164 169 167 167 182 186 187 189 189 184 158 155 165 169 177 187 192 190 189 186 188 198 205 195 208
73 116 142 168 203 236 253 273 232 109 171 201 136 145 144 124 135 234 234 177 164 151 148 151 170 159 167 190 173 153 164 167 182 191 197 199 193 191 193 199 205 208 201 213
2 5 172 193 217 253 269 267 95 141 227 208 155 151 150 169 190 195 183 171 162 160 159 154 157 159 187 185 159 160 178 200 204 197 195 197 198 198 199 199 207 212 207 202
193 189 210 179 206 252 270 115 164 211 181 154 153 154 150 159 154 153 157 162 157 163 159 150 158 197 211 187 165 171 200 212 200 186 192 202 204 203 196 191 214 211 191 195
188 197 200 194 219 248 230 186 192 149 142 151 150 153 144 138 144 145 153 161 163 156 146 149 165 209 251 219 179 183 207 199 181 170 196 221 219 212 199 195 202 203 193 201
296 337 74 331 283 288 59 87 101 134 141 153 157 153 142 136 140 134 129 140 142 150 154 167 175 204 246 241 199 197 193 177 169 179 205 214 210 232 237 213 200 197 204 213
274 328 351 298 285 4 17 97 146 146 128 130 141 147 145 138 139 141 146 157 159 162 182 173 181 201 231 237 221 206 192 171 174 188 206 221 221 219 234 235 230 222 224 216
277 221 207 242 247 225 249 232 161 136 142 146 139 128 139 144 147 151 164 175 170 174 183 177 184 198 226 229 239 239 205 180 179 196 212 221 223 231 226 228 294 297 261 260
Height
1496 1502 1506 1500 1498 1499 1500 1502 1503 1496 1488 1492 1495 1496 1494 1492 1493 1494 1495 1495 1496 1498 1500 1501 1503 1504 1504 1506 1506 1507 1508 1508 1509 1510 1511 1512 1513 1514 1516 1516 1517 1518 1517 1518
1500 1502 1491 1488 1490 1492 1496 1501 1500 1493 1487 1490 1496 1496 1492 1491 1491 1492 1493 1494 1494 1497 1498 1499 1501 1502 1503 1504 1504 1505 1506 1507 1507 1508 1509 1510 1511 1512 1514 1515 1515 1516 1516 1516
1499 1490 1482 1484 1487 1491 1493 1497 1495 1494 1490 1489 1495 1500 1495 1492 1492 1492 1492 1493 1494 1495 1495 1496 1498 1500 1500 1501 1502 1503 1504 1505 1505 1506 1507 1509 1510 1511 1512 1512 1513 1513 1514 1514
1490 1482 1481 1482 1484 1486 1493 1484 1484 1487 1496 1502 1498 1513 1499 1493 1492 1491 1491 1492 1492 1493 1494 1495 1496 1497 1498 1499 1500 1501 1502 1503 1504 1505 1506 1506 1507 1508 1509 1510 1511 1512 1512 1512
1487 1480 1480 1482 1479 1479 1483 1479 1482 1485 1494 1502 1500 1510 1504 1494 1495 1492 1490 1490 1491 1491 1492 1493 1493 1495 1496 1497 1498 1498 1499 1500 1502 1503 1504 1505 1506 1507 1508 1508 1509 1510 1510 1510
1480 1475 1475 1475 1473 1473 1476 1481 1485 1491 1501 1513 1503 1507 1507 1498 1493 1490 1489 1490 1490 1491 1491 1492 1492 1493 1494 1495 1496 1497 1497 1498 1500 1501 1503 1504 1504 1505 1506 1506 1507 1508 1508 1508
1484 1477 1472 1471 1476 1475 1479 1496 1513 1515 1519 1515 1498 1502 1504 1490 1486 1486 1487 1488 1489 1489 1489 1490 1490 1491 1492 1493 1494 1495 1496 1497 1498 1500 1501 1502 1503 1503 1504 1504 1505 1505 1505 1506
1493 1491 1475 1471 1475 1480 1481 1492 1513 1521 1521 1512 1500 1504 1497 1487 1484 1484 1485 1486 1487 1488 1488 1488 1489 1490 1491 1492 1493 1494 1495 1496 1497 1498 1499 1500 1501 1501 1502 1503 1503 1503 1503 1504
1491 1488 1471 1469 1468 1473 1481 1488 1489 1504 1507 1514 1508 1500 1493 1487 1485 1485 1485 1486 1486 1486 1487 1487 1488 1490 1491 1491 1491 1492 1493 1494 1496 1497 1498 1499 1499 1500 1500 1501 1502 1502 1502 1502
1480 1487 1475 1469 1468 1469 1472 1478 1493 1504 1514 1518 1509 1504 1501 1491 1488 1486 1485 1485 1486 1486 1486 1487 1487 1488 1490 1491 1491 1492 1493 1494 1495 1496 1497 1498 1498 1498 1499 1499 1500 1500 1500 1500
1476 1488 1482 1475 1476 1477 1476 1480 1487 1499 1502 1512 1516 1508 1484 1484 1483 1484 1484 1484 1484 1486 1485 1486 1487 1488 1489 1491 1491 1492 1493 1493 1494 1495 1496 1496 1496 1497 1497 1498 1498 1498 1498 1498
1475 1486 1491 1481 1470 1466 1470 1475 1485 1499 1501 1502 1509 1504 1478 1479 1480 1481 1482 1482 1483 1484 1485 1486 1487 1488 1489 1490 1490 1491 1492 1492 1493 1494 1494 1494 1495 1495 1496 1496 1496 1496 1496 1497
1474 1487 1498 1492 1484 1474 1473 1472 1476 1485 1495 1501 1507 1500 1479 1479 1479 1479 1480 1481 1482 1482 1484 1485 1486 1487 1488 1488 1489 1490 1491 1491 1492 1492 1492 1493 1493 1494 1494 1494 1494 1494 1495 1495
1469 1483 1493 1498 1491 1480 1478 1473 1471 1481 1495 1496 1493 1489 1482 1480 1479 1479 1479 1480 1481 1481 1482 1484 1485 1486 1487 1488 1489 1489 1490 1490 1491 1491 1491 1492 1492 1493 1493 1493 1493 1493 1493 1493
1469 1482 1480 1479 1474 1473 1473 1471 1470 1474 1479 1486 1483 1482 1479 1477 1476 1477 1478 1479 1481 1481 1482 1483 1484 1485 1487 1487 1488 1488 1489 1489 1490 1490 1490 1491 1491 1492 1492 1492 1492 1492 1492 1492
1472 1478 1478 1478 1472 1471 1471 1468 1467 1468 1470 1473 1476 1478 1473 1474 1474 1477 1478 1479 1480 1481 1482 1483 1483 1485 1486 1486 1487 1487 1488 1488 1488 1489 1489 1490 1490 1490 1490 1491 1490 1490 1491 1491
1475 1479 1484 1486 1475 1474 1481 1470 1467 1467 1466 1470 1476 1475 1472 1474 1475 1476 1477 1478 1479 1480 1481 1482 1483 1483 1484 1484 1485 1486 1486 1487 1487 1487 1488 1488 1489 1489 1489 1489 1489 1489 1489 1489
1474 1479 1485 1487 1484 1490 1478 1463 1462 1465 1466 1465 1466 1469 1470 1471 1473 1475 1476 1477 1478 1479 1480 1481 1482 1482 1482 1483 1483 1484 1484 1485 1485 1486 1486 1487 1488 1488 1488 1488 1488 1488 1487 1487
1464 1474 1483 1488 1489 1483 1471 1463 1462 1466 1470 1466 1467 1469 1470 1471 1473 1475 1476 1477 1477 1478 1479 1479 1480 1481 1481 1482 1482 1482 1483 1483 1484 1484 1485 1486 1486 1486 1486 1486 1486 1486 1485 1485
1464 1467 1478 1483 1486 1487 1474 1461 1458 1463 1473 1467 1466 1468 1469 1471 1477 1477 1475 1476 1477 1477 1478 1478 1479 1479 1480 1481 1481 1481 1481 1482 1482 1483 1483 1484 1484 1485 1484 1484 1484 1484 1484 1483
1473 1474 1478 1481 1483 1477 1464 1458 1458 1473 1473 1466 1465 1466 1468 1469 1471 1473 1474 1475 1475 1476 1476 1477 1478 1478 1478 1479 1479 1479 1480 1480 1481 1481 1482 1482 1482 1482 1482 1482 1482 1482 1482 1481
1476 1478 1479 1480 1483 1479 1459 1459 1463 1464 1460 1462 1464 1465 1466 1468 1469 1471 1472 1473 1474 1475 1476 1476 1477 1477 1477 1477 1477 1477 1478 1479 1480 1480 1480 1480 1480 1481 1480 1480 1480 1480 1479 1479
1471 1472 1473 1474 1474 1462 1458 1457 1458 1458 1459 1461 1463 1464 1466 1467 1468 1469 1471 1472 1473 1474 1474 1475 1476 1476 1476 1476 1476 1476 1477 1477 1478 1478 1478 1478 1478 1478 1478 1478 1478 1477 1477 1476
1468 1466 1467 1468 1464 1460 1457 1457 1457 1458 1459 1460 1461 1463 1464 1466 1467 1468 1469 1470 1471 1472 1473 1473 1474 1474 1474 1474 1474 1475 1475 1475 1476 1476 1476 1476 1476 1476 1476 1476 1476 1475 1474 1473
1468 1466 1468 1467 1463 1461 1459 1458 1459 1459 1459 1460 1461 1462 1463 1464 1466 1467 1468 1469 1470 1471 1471 1472 1472 1472 1472 1472 1473 1473 1473 1473 1473 1473 1474 1474 1474 1474 1474 1473 1473 1472 1472 1471
1467 1467 1468 1467 1462 1461 1460 1459 1459 1459 1459 1459 1460 1462 1463 1463 1464 1466 1467 1468 1469 1470 1470 1470 1470 1469 1470 1470 1471 1471 1471 1471 1471 1471 1471 1471 1471 1471 1471 1471 1470 1470 1469 1469